Helicity
187 212 195 196 196 192 192 174 182 177 169 188 211 224 223 224 218 233 252 262 245 257
165 189 192 182 190 182 179 178 194 182 195 177 190 205 207 215 194 216 231 236 267 262
160 152 161 176 180 174 168 171 172 183 152 162 172 192 242 245 222 239 231 247 253 249
180 161 158 147 146 151 146 156 157 161 170 172 167 185 216 214 243 271 256 266 234 222
284 233 214 184 163 163 141 128 133 150 160 152 162 179 198 206 235 270 244 287 294 214
433 356 263 152 126 128 119 120 123 134 151 154 157 168 188 193 243 283 230 243 266 205
428 361 251 208 147 140 127 118 123 133 155 189 226 219 220 253 235 239 208 215 231 228
402 340 257 210 218 105 100 121 128 128 150 159 194 206 197 212 169 231 211 226 218 189
442 367 299 262 295 250 145 99 115 131 139 139 143 125 141 175 217 226 196 211 188 178
442 391 488 348 344 302 234 160 118 113 133 109 135 101 106 116 178 184 185 198 195 183
579 560 503 427 434 396 290 214 177 157 106 115 89 88 106 120 154 144 131 145 139 150
576 552 441 407 387 372 361 322 279 251 230 186 155 80 60 96 122 122 113 94 90 109
387 445 501 459 383 400 357 363 336 376 311 308 261 229 145 112 94 90 79 102 86 47
354 355 398 406 437 437 462 399 393 383 331 372 363 329 191 124 93 78 67 70 66 64
Wind_Speed
55 50 49 48 47 48 46 43 40 39 39 38 37 36 34 35 35 34 35 37 36 36
60 57 54 51 48 47 47 46 42 41 42 42 38 39 35 37 38 37 35 38 39 40
61 59 57 55 54 51 48 46 44 43 42 44 44 42 42 43 42 41 42 43 42 43
61 59 57 56 56 53 52 48 47 46 46 46 47 47 47 48 46 45 46 44 44 45
54 53 53 53 53 52 55 55 55 53 52 52 51 47 48 49 49 48 46 46 47 48
47 50 53 55 56 57 58 59 58 55 55 54 53 52 50 51 51 51 49 48 45 46
48 52 54 55 54 51 52 53 54 54 55 55 53 53 51 50 51 52 49 46 43 44
48 49 52 47 47 46 45 46 46 45 46 47 48 48 48 49 46 42 41 41 42 43
48 49 46 47 42 41 40 39 40 43 44 43 43 43 40 39 38 41 43 43 43 38
43 43 44 43 37 39 41 41 42 43 42 43 43 40 38 35 38 39 40 41 39 37
41 40 41 38 34 37 37 33 34 36 37 37 38 35 32 31 32 33 34 33 34 35
38 35 36 34 31 32 32 29 28 27 27 27 31 29 28 28 31 32 33 31 32 31
38 36 37 36 32 32 28 24 23 24 25 26 26 28 22 23 25 27 26 28 27 26
38 37 38 36 32 32 31 27 25 25 23 26 27 29 25 23 24 25 26 25 27 30
Wind_Direction
251 253 256 254 256 254 256 255 255 250 253 250 252 254 255 258 260 258 257 260 263 264
252 254 256 257 257 258 259 258 258 257 256 252 253 254 252 260 260 259 257 263 261 266
253 254 257 259 258 258 260 260 260 261 260 256 258 259 259 263 268 265 265 266 265 264
254 255 256 259 260 260 261 260 262 262 262 261 262 262 261 265 267 264 267 268 266 265
256 255 257 259 262 262 263 263 264 265 265 266 265 264 263 264 267 267 265 264 268 265
263 261 263 264 264 264 265 265 267 267 266 266 268 265 267 267 267 271 266 268 267 268
268 269 269 268 264 265 267 268 270 269 271 271 270 268 272 270 271 275 270 270 270 272
276 276 271 268 268 265 268 270 272 275 274 275 273 272 272 273 270 269 270 274 275 275
280 277 275 270 268 267 269 273 275 277 277 278 280 276 275 274 271 270 272 275 279 275
290 279 275 274 270 271 273 276 277 279 279 280 280 281 277 275 280 279 278 279 278 277
292 289 285 275 278 275 277 277 282 286 286 285 287 281 279 281 285 287 288 286 284 280
299 291 286 281 281 287 285 284 288 296 298 299 304 291 284 287 288 291 291 292 292 290
300 299 295 289 288 285 291 292 298 300 304 303 308 312 307 304 300 297 308 303 302 305
304 297 290 287 288 291 291 295 299 301 303 308 315 312 313 312 313 307 306 312 311 312